Location: Newark
(3.1475°N, 101.6933°E)
Time: 07:37:11
(UTC+00:00)

Envisat - Pass Details

Date: 23 September 2019
Orbit: 764 x 766 km, 98.1° (Epoch: 23 October)

Event Time Altitude Azimuth Distance (km) Brightness Sun altitude
Rises 12:18:35 0° 185° (S) 3,228 6.3 -18.2°
Reaches altitude 10° 12:21:03 10° 193° (SSW) 2,301 5.6 -18.8°
Maximum altitude 12:25:38 35° 258° (WSW) 1,213 4.6 -20.0°
Drops below altitude 10° 12:30:14 10° 324° (NW) 2,295 5.9 -21.1°
Sets 12:32:42 0° 332° (NNW) 3,218 6.6 -21.7°
